[[{"header":{"parameterUnit":"m.s-1","parameterCategory":1,"la1":30.2991,"la2":30.254,"lo1":-89.0895,"lo2":-89.0444,"dy":0.0017,"dx":0.0017,"nx":28,"ny":28,"refTime":"2024-03-02T03:00:00:Z","depth":0,"parameterNumber":2,"parameterNumberName":"U-component_of_WINDS"},"data":[0,0,0,0,0,0,0,0,0,0,0,0,0,0,0,0,0,0,0,0,0,0,0,0,0,0,0,0,0,0,0,0,0,0,0,0,0,0,0,0,0,0,0,0,0,0,0,0,0,0,0,0,0,0,0,0,0,0,-2.6754,-2.6754,0,-2.6751,-2.6751,-2.6751,-2.667,-2.6668,-2.6666,-2.6664,-2.6661,-2.6663,-2.6665,0,0,0,0,0,0,0,0,0,0,0,0,0,-2.6694,-2.6695,-2.6754,-2.6754,-2.6754,-2.6751,-2.6751,-2.6751,-2.667,-2.6668,-2.6665,-2.6663,-2.6661,-2.6663,-2.6665,0,0,0,0,0,0,0,0,0,0,0,0,0,-2.6708,-2.6696,-2.6754,-2.6714,-2.671,-2.6751,-2.6751,-2.6751,-2.6671,-2.6668,-2.6665,-2.6662,-2.666,-2.6663,-2.6665,-2.6745,0,0,-2.6674,-2.6675,0,0,0,0,0,0,0,0,-2.6707,-2.671,-2.672,-2.6717,-2.6713,-2.6708,-2.6728,-2.6749,-2.6672,-2.6686,-2.6664,-2.666,-2.6679,-2.668,-2.6687,-2.6745,-2.6745,-2.6674,-2.6676,-2.6677,-2.6678,0,0,0,0,0,0,0,-2.6707,-2.671,-2.6753,-2.672,-2.6716,-2.6696,-2.6695,-2.6732,-2.67,-2.6684,-2.6678,-2.6679,-2.6677,-2.6684,-2.6686,-2.6745,-2.6674,-2.6677,-2.6678,-2.668,-2.687,-2.6873,0,0,0,0,0,0,-2.6711,-2.671,-2.6753,-2.6753,-2.6702,-2.67,-2.6698,-2.6712,-2.6699,-2.6694,-2.6682,-2.6675,-2.6681,-2.6683,-2.6685,-2.6778,-2.6677,-2.668,-2.6681,-2.6867,-2.6871,-2.6874,0,0,0,0,0,0,-2.671,-2.6716,-2.6753,-2.673,-2.6733,-2.6704,-2.6721,-2.6714,-2.6721,-2.6697,-2.6692,-2.6695,-2.6678,-2.6682,-2.6731,-2.6777,-2.6681,-2.6684,-2.6863,-2.6868,-2.6872,-2.6965,0,0,0,0,0,0,-2.6709,-2.6716,-2.6745,-2.6731,-2.6735,-2.6799,-2.6723,-2.6716,-2.6726,-2.6718,-2.6708,-2.6704,-2.6676,-2.6727,-2.6734,-2.6779,-2.6686,-2.6858,-2.6865,-2.6871,-2.6958,-2.6973,-2.6985,0,0,0,0,0,-2.6707,-2.6771,-2.6747,-2.6753,-2.6771,-2.6801,-2.6803,-2.677,-2.673,-2.676,-2.6745,-2.6704,-2.6771,-2.6733,-2.674,-2.6787,-2.6855,-2.6863,-2.687,-2.6952,-2.697,-2.6985,0,0,0,0,0,0,-2.6792,-2.6769,-2.6741,-2.6803,-2.6805,-2.6788,-2.6824,-2.679,-2.6803,-2.6795,-2.6753,-2.6752,-2.6809,-2.6802,-2.676,-2.6864,-2.6806,-2.6816,-2.6866,-2.6883,-2.6896,-2.6897,-2.6688,0,0,0,0,0,-2.6818,-2.6844,-2.6823,-2.6879,-2.6882,-2.6853,-2.6865,-2.6839,-2.6839,-2.684,-2.6828,-2.683,-2.6852,-2.6867,-2.6885,-2.6957,-2.6954,-2.6993,-2.7006,-2.7018,-2.7026,-2.7065,-2.7082,-2.6899,-2.6899,-2.6899,0,0,-2.6871,-2.6862,-2.6881,-2.6896,-2.6894,-2.6923,-2.6854,-2.6887,-2.6908,-2.6845,-2.6891,-2.6883,-2.6883,-2.6944,-2.697,-2.694,-2.7076,-2.7028,-2.7037,-2.7039,-2.7074,-2.7091,-2.7107,-2.6904,-2.6903,-2.6903,0,0,-2.6984,-2.698,-2.7027,-2.7027,-2.7025,-2.7006,-2.7017,-2.7005,-2.6998,-2.7043,-2.6996,-2.7021,-2.7059,-2.7061,-2.7067,-2.7183,-2.7146,-2.719,-2.7262,-2.73,-2.7314,-2.7327,-2.7368,-2.7384,-2.7199,-2.7199,-2.7199,0,-2.7051,-2.7092,-2.7055,-2.7092,-2.71,-2.7044,-2.7092,-2.7094,-2.7099,-2.7106,-2.7073,-2.712,-2.7116,-2.7177,-2.7205,-2.7212,-2.7224,-2.7191,-2.7315,-2.7327,-2.7338,-2.7378,-2.7393,-2.7204,-2.7204,-2.7203,-2.7202,0,-2.7176,-2.7205,-2.7243,-2.7249,-2.7262,-2.7304,-2.7274,-2.7292,-2.7266,-2.725,-2.7298,-2.7291,-2.7308,-2.7321,-2.7295,-2.7379,-2.7361,-2.7322,-2.7263,-2.7362,-2.7398,-2.7413,-2.7212,-2.721,-2.7208,-2.7207,0,0,-2.7341,-2.7327,-2.7341,-2.7344,-2.7338,-2.7361,-2.7401,-2.7417,-2.7433,-2.7439,-2.7472,-2.7506,-2.747,-2.7477,-2.7452,-2.7485,-2.7578,-2.7442,-2.7442,-2.7468,-2.767,-2.7699,-2.7717,-2.7554,-2.7556,-2.7558,-2.767,0,-2.745,-2.7517,-2.7486,-2.7557,-2.7584,-2.7532,-2.7567,-2.7568,-2.7556,-2.7577,-2.7563,-2.7588,-2.7539,-2.7543,-2.7574,-2.756,-2.7618,-2.7552,-2.7585,-2.7586,-2.7586,-2.7736,-2.7767,-2.7872,-2.7684,-2.7687,-2.7688,0,-2.7586,-2.7597,-2.7671,-2.7662,-2.7672,-2.7704,-2.7717,-2.7738,-2.7739,-2.7727,-2.7736,-2.7703,-2.7743,-2.7685,-2.7739,-2.7695,-2.7707,-2.7703,-2.7706,-2.7707,-2.7643,-2.7742,-2.7905,-2.7921,-2.771,-2.7708,-2.7707,0,-2.77,-2.7734,-2.7782,-2.7786,-2.7776,-2.78,-2.7797,-2.7795,-2.7807,-2.7818,-2.7826,-2.7842,-2.7851,-2.7865,-2.7838,-2.7798,-2.7897,-2.7836,-2.7889,-2.7889,-2.7911,-2.791,-2.8079,-2.7919,-2.7919,-2.7919,-2.7919,0,-2.7825,-2.7872,-2.7833,-2.7863,-2.7915,-2.7879,-2.7932,-2.7924,-2.7922,-2.795,-2.7906,-2.7934,-2.7896,-2.792,-2.79,-2.7948,-2.7953,-2.7945,-2.7939,-2.7949,-2.795,-2.7956,-2.7948,-2.7923,-2.7922,-2.7921,-2.7921,0,-2.796,-2.7936,-2.7986,-2.7973,-2.7971,-2.801,-2.7999,-2.8026,-2.8011,-2.8047,-2.8054,-2.803,-2.8056,-2.803,-2.8055,-2.8041,-2.8106,-2.809,-2.8106,-2.8102,-2.8155,-2.8151,-2.8334,-2.8356,-2.8183,-2.8184,-2.8186,0,-2.8041,-2.8077,-2.8068,-2.8083,-2.8083,-2.8109,-2.8121,-2.8088,-2.8103,-2.8107,-2.8134,-2.8157,-2.8173,-2.8217,-2.8202,-2.8221,-2.8205,-2.8268,-2.8207,-2.8216,-2.8206,-2.8204,-2.8208,-2.828,-2.8282,-2.8283,-2.8285,0,-2.8189,-2.8175,-2.8194,-2.821,-2.8226,-2.8237,-2.8244,-2.8259,-2.8225,-2.8244,-2.827,-2.8283,-2.8308,-2.8331,-2.8346,-2.8344,-2.8309,-2.8304,-2.8317,-2.8328,-2.8336,-2.8332,-2.814,-2.83,-2.8298,-2.8297,-2.8296,-2.8296,-2.8299,-2.8329,-2.8327,-2.835,-2.8352,-2.8361,-2.8386,-2.8374,-2.8396,-2.8413,-2.8393,-2.8425,-2.8426,-2.8442,-2.8444,-2.8469,-2.8443,-2.8462,-2.8467,-2.8472,-2.848,-2.8332,-2.8472,-2.8471,-2.8471,-2.8471,-2.847,0,-2.8444,-2.8441,-2.8463,-2.8475,-2.8493,-2.8459,-2.8466,-2.8484,-2.8513,-2.8516,-2.8533,-2.8564,-2.8587,-2.8574,-2.8594,-2.8617,-2.8601,-2.8623,-2.8621,-2.8621,-2.8502,-2.8489,-2.8635,-2.8635,-2.8635,-2.8635,-2.8635,-2.8635,-2.8522,-2.857,-2.8556,-2.8606,-2.8602,-2.8633,-2.864,-2.8648,-2.865,-2.8687,-2.8705,-2.8697,-2.8694,-2.8714,-2.8733,-2.8729,-2.8738,-2.8766,-2.8756,-2.8645,-2.8629,-2.8614,-2.8601,-2.8768,-2.8768,-2.8872,-2.8873,-2.8874]},{"header":{"parameterUnit":"m.s-1","parameterCategory":1,"la1":30.2991,"la2":30.254,"lo1":-89.0895,"lo2":-89.0444,"dy":0.0017,"dx":0.0017,"nx":28,"ny":28,"refTime":"2024-03-02T03:00:00:Z","depth":0,"parameterNumber":3,"parameterNumberName":"V-component_of_WINDS"},"data":[0,0,0,0,0,0,0,0,0,0,0,0,0,0,0,0,0,0,0,0,0,0,0,0,0,0,0,0,0,0,0,0,0,0,0,0,0,0,0,0,0,0,0,0,0,0,0,0,0,0,0,0,0,0,0,0,0,0,0.4701,0.4702,0,0.4781,0.4782,0.4783,0.4796,0.4795,0.4794,0.4793,0.4877,0.488,0.4883,0,0,0,0,0,0,0,0,0,0,0,0,0,0.4561,0.4564,0.4701,0.4702,0.4703,0.4781,0.4782,0.4783,0.4796,0.4795,0.4794,0.4793,0.4876,0.4879,0.4883,0,0,0,0,0,0,0,0,0,0,0,0,0,0.463,0.4565,0.47,0.4718,0.4721,0.4781,0.4782,0.4783,0.4796,0.4795,0.4794,0.4793,0.4875,0.4879,0.4883,0.4931,0,0,0.4896,0.4898,0,0,0,0,0,0,0,0,0.4626,0.4635,0.4715,0.4717,0.472,0.4777,0.4763,0.4833,0.4796,0.4767,0.4793,0.4792,0.4845,0.4851,0.4869,0.4935,0.4939,0.4897,0.4899,0.4901,0.4903,0,0,0,0,0,0,0,0.4621,0.4631,0.4733,0.4716,0.4719,0.4723,0.4732,0.4777,0.4811,0.477,0.4771,0.478,0.4846,0.4865,0.4871,0.494,0.4897,0.4901,0.4903,0.4905,0.5053,0.5054,0,0,0,0,0,0,0.4613,0.4627,0.473,0.4735,0.4669,0.4727,0.4736,0.476,0.4811,0.4817,0.4781,0.478,0.4858,0.4866,0.4874,0.4935,0.4901,0.4905,0.4908,0.5052,0.5053,0.5055,0,0,0,0,0,0,0.461,0.4622,0.4727,0.4682,0.4695,0.473,0.4757,0.4762,0.4781,0.4819,0.4825,0.4794,0.4857,0.4868,0.4918,0.4938,0.4907,0.4911,0.505,0.5052,0.5054,0.5058,0,0,0,0,0,0,0.4606,0.4621,0.4638,0.4682,0.4698,0.4768,0.4758,0.4764,0.4788,0.4788,0.4833,0.4839,0.4857,0.4911,0.4922,0.4944,0.4915,0.5049,0.5051,0.5054,0.5056,0.5059,0.5063,0,0,0,0,0,0.4601,0.4636,0.4639,0.4651,0.472,0.4769,0.4778,0.4798,0.479,0.4809,0.4834,0.4838,0.4934,0.4916,0.4928,0.4952,0.5047,0.505,0.5053,0.5054,0.5059,0.5062,0,0,0,0,0,0,0.4593,0.4642,0.4646,0.4696,0.4728,0.4771,0.4795,0.4802,0.4838,0.4836,0.486,0.487,0.4919,0.494,0.4919,0.5003,0.499,0.4996,0.4987,0.4991,0.4995,0.4989,0.4918,0,0,0,0,0,0.4598,0.4633,0.4673,0.4713,0.473,0.476,0.4782,0.4795,0.4829,0.4843,0.4872,0.4906,0.4944,0.4969,0.5006,0.5059,0.507,0.5082,0.5085,0.5088,0.5092,0.5124,0.513,0.5065,0.5065,0.5065,0,0,0.4607,0.4637,0.4658,0.4713,0.474,0.4777,0.4771,0.481,0.4838,0.4849,0.4898,0.4921,0.4961,0.5013,0.5037,0.5032,0.5113,0.5091,0.5093,0.5097,0.5128,0.5134,0.514,0.5067,0.5066,0.5066,0,0,0.4642,0.4668,0.4706,0.4733,0.4774,0.4794,0.4803,0.4846,0.4861,0.4911,0.4921,0.4955,0.502,0.5049,0.5072,0.5121,0.5127,0.5133,0.5151,0.5182,0.5187,0.5192,0.5211,0.5217,0.5137,0.5137,0.5137,0,0.4649,0.4704,0.4724,0.4764,0.4788,0.4801,0.484,0.4866,0.4916,0.4934,0.4927,0.5011,0.5038,0.5099,0.5111,0.5129,0.5141,0.5128,0.5184,0.5189,0.5194,0.5213,0.522,0.5138,0.5138,0.5138,0.5138,0,0.4711,0.4749,0.4775,0.4824,0.4852,0.489,0.4918,0.4944,0.4955,0.4977,0.5029,0.5062,0.5108,0.5123,0.5134,0.5186,0.5181,0.5179,0.5168,0.5201,0.5219,0.5226,0.5139,0.5138,0.5138,0.5138,0,0,0.4742,0.4804,0.4813,0.4837,0.4884,0.4915,0.4955,0.5,0.5023,0.5058,0.5094,0.5149,0.5149,0.5175,0.5189,0.5216,0.5256,0.5212,0.5213,0.522,0.5318,0.532,0.5327,0.526,0.5262,0.5263,0.5315,0,0.4785,0.4856,0.4877,0.4938,0.4976,0.4989,0.5025,0.5058,0.508,0.5116,0.514,0.518,0.5175,0.5191,0.5218,0.5245,0.5276,0.5242,0.5295,0.5297,0.5285,0.5337,0.5338,0.5386,0.5322,0.5323,0.5324,0,0.4843,0.488,0.4945,0.4989,0.5006,0.5037,0.5081,0.5114,0.5154,0.5168,0.5199,0.5211,0.5256,0.5242,0.5304,0.5281,0.5304,0.5321,0.5323,0.5329,0.5313,0.5345,0.5401,0.5409,0.5335,0.5334,0.5333,0,0.4861,0.4928,0.4976,0.4995,0.5048,0.507,0.5094,0.5132,0.5158,0.5197,0.5215,0.5258,0.5282,0.5316,0.5341,0.5328,0.5402,0.5389,0.5416,0.5416,0.5431,0.543,0.5493,0.5445,0.5445,0.5445,0.5444,0,0.4907,0.4946,0.4985,0.5015,0.506,0.5085,0.513,0.5154,0.5188,0.5224,0.5238,0.5271,0.5302,0.534,0.5359,0.541,0.542,0.5434,0.5439,0.5433,0.5431,0.5449,0.5447,0.5447,0.5446,0.5446,0.5445,0,0.4935,0.4962,0.5016,0.5062,0.5075,0.5107,0.5147,0.5177,0.52,0.5245,0.5257,0.5294,0.5339,0.5368,0.5425,0.5439,0.5494,0.5498,0.5481,0.5484,0.551,0.5507,0.5586,0.5599,0.5541,0.5542,0.5542,0,0.4962,0.4993,0.5043,0.5068,0.5092,0.5132,0.5159,0.5185,0.5213,0.5262,0.5287,0.5333,0.5372,0.5445,0.5477,0.5522,0.5527,0.5552,0.5534,0.5528,0.5529,0.5527,0.5532,0.5555,0.5555,0.5555,0.5556,0,0.5008,0.5021,0.506,0.5104,0.5136,0.5172,0.5208,0.5228,0.5261,0.5292,0.5339,0.5369,0.5429,0.5476,0.5524,0.5549,0.5559,0.5561,0.557,0.5565,0.5555,0.5562,0.549,0.5559,0.5559,0.5559,0.5559,0.5558,0.5038,0.5067,0.5108,0.5151,0.5181,0.5215,0.5246,0.5274,0.5314,0.5364,0.5378,0.5428,0.5469,0.5534,0.5561,0.5601,0.5598,0.561,0.5613,0.5616,0.5618,0.5548,0.561,0.561,0.561,0.561,0.561,0,0.5086,0.5114,0.5153,0.5204,0.5239,0.5244,0.5285,0.5314,0.5358,0.5395,0.5433,0.5489,0.5535,0.5572,0.5619,0.5645,0.5651,0.5657,0.5656,0.5662,0.5617,0.5605,0.5651,0.5651,0.5651,0.5651,0.5651,0.5651,0.5116,0.5166,0.5184,0.525,0.5277,0.5326,0.5349,0.5382,0.5412,0.5473,0.5511,0.5535,0.5573,0.5624,0.5667,0.5677,0.5695,0.57,0.5711,0.5669,0.5664,0.566,0.5649,0.5704,0.5704,0.5752,0.5753,0.5753]}]]